sat.trackr.live / text

‹ back to catalog

KUIPER-00056

NORAD 64516 · 2025-134S

PAYLOAD ACTIVE UNKNOWN

§ Identity

Operator
Country
US
Launch date
2025-06-23
Launch site
AFETR
Launch vehicle
Mass (kg)
RCS (m²)

External: N2YO · Heavens-Above · Gunter

§ Orbital elements

Epoch: 2026-05-24T23:36:19.858752Z

Period
97.30 min
Inclination
51.9002°
Eccentricity
0.0000310
Mean motion
14.79933647 rev/d
Perigee alt
629.3 km
Apogee alt
629.8 km
Semi-major
7,007.7 km
B*
6.5111e-5
RAAN
245.7594°
Arg perigee
105.7956°
Mean anomaly
254.3041°
Rev number
5,151

§ Raw data

KUIPER-000561 64516U 25134S   26144.98356318  .00000275  00000+0  65111-4 0  99982 64516  51.9002 245.7594 0000310 105.7956 254.3041 14.79933647 51518

JSON: /api/v1/satellites/64516 · /tle

For live sub-satellite position, see the globe view (requires WebGL).

§ Visibility from observer

Set your observer location to see the next 7 days of passes ≥ 10°. The values pass through the URL so the page stays shareable.

No JS? Fill the form by hand. The geolocation button needs JavaScript.